CW0214 Weather Reports


time (UTC)temp
C
wind
direction
speed
KPH
gust
KPH
rain 1hr
cm
rain 24hr
cm
rain mn
cm
humidity
%
barometer
mb
20260906161405 32 119 4.8 14.5 0.00 0.00 0.00 43 1020.2
20260906160905 32 100 3.2 19.3 0.00 0.00 0.00 44 1020.2
20260906160405 32 197 1.6 11.3 0.00 0.00 0.00 44 1020.2
20260906155905 33 103 3.2 19.3 0.00 0.00 0.00 43 1020.2
20260906154905 33 72 0.0 9.7 0.00 0.00 0.00 43 1020.2
20260906153905 33 113 4.8 19.3 0.00 0.00 0.00 42 1020.1
20260906153405 33 105 8.0 16.1 0.00 0.00 0.00 41 1020.1
20260906152906 33 145 4.8 14.5 0.00 0.00 0.00 42 1020.1
20260906152406 33 152 3.2 14.5 0.00 0.00 0.00 41 1020.1
20260906151406 33 86 3.2 11.3 0.00 0.00 0.00 41 1020.1
20260906150905 33 211 1.6 11.3 0.00 0.00 0.00 41 1020.1
20260906150405 33 350 3.2 9.7 0.00 0.00 0.00 42 1020.2
20260906145906 33 70 3.2 12.9 0.00 0.00 0.00 41 1020.2
20260906145405 33 148 0.0 12.9 0.00 0.00 0.00 42 1020.2
20260906144905 33 55 1.6 8.0 0.00 0.00 0.00 40 1020.4
20260906144405 33 122 1.6 12.9 0.00 0.00 0.00 41 1020.4
20260906143905 33 271 1.6 14.5 0.00 0.00 0.00 41 1020.5
20260906143405 34 73 1.6 12.9 0.00 0.00 0.00 42 1020.4
20260906142906 33 49 0.0 12.9 0.00 0.00 0.00 42 1020.4
20260906142405 33 118 3.2 16.1 0.00 0.00 0.00 43 1020.6
20260906141905 33 131 4.8 19.3 0.00 0.00 0.00 42 1020.6
20260906141406 33 148 3.2 11.3 0.00 0.00 0.00 42 1020.6
20260906140905 33 82 1.6 11.3 0.00 0.00 0.00 42 1020.7
20260906135905 33 150 4.8 12.9 0.00 0.00 0.00 42 1020.8
20260906135405 33 115 1.6 8.0 0.00 0.00 0.00 42 1020.8
20260906134905 33 143 3.2 11.3 0.00 0.00 0.00 43 1020.9
20260906134405 33 112 0.0 14.5 0.00 0.00 0.00 43 1020.8
20260906133905 33 115 1.6 12.9 0.00 0.00 0.00 45 1020.8
20260906133405 33 128 3.2 14.5 0.00 0.00 0.00 45 1020.7
20260906132906 33 111 1.6 11.3 0.00 0.00 0.00 45 1020.8
20260906132405 33 140 1.6 11.3 0.00 0.00 0.00 45 1020.8
20260906131905 33 119 1.6 19.3 0.00 0.00 0.00 46 1020.8
20260906131406 32 136 1.6 12.9 0.00 0.00 0.00 47 1020.7
20260906130906 32 107 3.2 11.3 0.00 0.00 0.00 48 1020.7
20260906130405 32 150 3.2 14.5 0.00 0.00 0.00 47 1020.7
20260906125905 32 85 3.2 14.5 0.00 0.00 0.00 48 1020.8
20260906124905 32 114 4.8 11.3 0.00 0.00 0.00 49 1020.8
20260906123905 32 98 8.0 19.3 0.00 0.00 0.00 49 1020.8
20260906122405 31 158 3.2 14.5 0.00 0.00 0.00 49 1020.9
20260906121905 32 121 3.2 19.3 0.00 0.00 0.00 49 1021.0
20260906121405 32 123 3.2 12.9 0.00 0.00 0.00 49 1021.1
20260906120905 32 116 3.2 12.9 0.00 0.00 0.00 50 1021.1
20260906120405 31 114 0.0 8.0 0.00 0.00 0.00 50 1021.1
20260906115905 32 116 1.6 9.7 0.00 0.00 0.00 48 1021.1
20260906115405 32 113 0.0 8.0 0.00 0.00 0.00 49 1021.0
20260906114905 32 155 1.6 16.1 0.00 0.00 0.00 49 1021.1
20260906114405 31 120 1.6 12.9 0.00 0.00 0.00 50 1021.0
20260906113905 31 164 0.0 11.3 0.00 0.00 0.00 50 1021.1
20260906113405 31 102 0.0 11.3 0.00 0.00 0.00 52 1021.1
20260906112905 31 125 3.2 12.9 0.00 0.00 0.00 53 1021.2
20260906111905 31 97 1.6 12.9 0.00 0.00 0.00 54 1021.3
20260906111405 31 117 0.0 3.2 0.00 0.00 0.00 55 1021.3
20260906110905 31 117 3.2 9.7 0.00 0.00 0.00 55 1021.4
20260906110405 30 142 0.0 11.3 0.00 0.00 0.00 56 1021.4
20260906105405 30 159 3.2 14.5 0.00 0.00 0.00 56 1021.5
20260906104905 30 96 4.8 12.9 0.00 0.00 0.00 56 1021.5
20260906104405 30 97 0.0 1.6 0.00 0.00 0.00 56 1021.6
20260906103905 30 39 0.0 1.6 0.00 0.00 0.00 57 1021.6
20260906103405 29 39 0.0 8.0 0.00 0.00 0.00 57 1021.6
20260906102905 29 157 0.0 1.6 0.00 0.00 0.00 57 1021.7
20260906102405 29 157 0.0 1.6 0.00 0.00 0.00 57 1021.7
20260906101905 28 157 0.0 1.6 0.00 0.00 0.00 58 1021.7
20260906101405 28 157 0.0 1.6 0.00 0.00 0.00 59 1021.7
20260906095905 28 157 0.0 1.6 0.00 0.00 0.00 59 1021.8
20260906095405 28 157 0.0 0.0 0.00 0.00 0.00 61 1021.7
20260906094905 27 158 0.0 1.6 0.00 0.00 0.00 62 1021.6
20260906094405 27 158 0.0 0.0 0.00 0.00 0.00 63 1021.6
20260906093905 27 158 0.0 0.0 0.00 0.00 0.00 62 1021.5
20260906092905 26 158 0.0 0.0 0.00 0.00 0.00 65 1021.4
20260906092405 25 158 0.0 1.6 0.00 0.00 0.00 68 1021.3
20260906091905 25 158 0.0 0.0 0.00 0.00 0.00 69 1021.4
20260906091405 25 158 0.0 1.6 0.00 0.00 0.00 70 1021.4
20260906090905 25 158 0.0 1.6 0.00 0.00 0.00 69 1021.5
20260906090405 25 158 0.0 0.0 0.00 0.00 0.00 71 1021.5
20260906085905 24 158 0.0 1.6 0.00 0.00 0.00 73 1021.4
20260906085405 24 158 0.0 0.0 0.00 0.00 0.00 72 1021.3
20260906084404 23 158 0.0 0.0 0.00 0.00 0.00 74 1021.3
20260906083905 23 158 0.0 0.0 0.00 0.00 0.00 75 1021.2
20260906083405 23 158 0.0 0.0 0.00 0.00 0.00 76 1021.2
20260906082905 22 158 0.0 1.6 0.00 0.00 0.00 77 1021.2
20260906082404 22 158 0.0 1.6 0.00 0.00 0.00 77 1021.2
20260906081905 22 158 0.0 1.6 0.00 0.00 0.00 79 1021.2
20260906081405 22 158 0.0 0.0 0.00 0.00 0.00 79 1021.2
20260906080905 21 158 0.0 0.0 0.00 0.00 0.00 78 1021.2
20260906080405 22 158 0.0 1.6 0.00 0.00 0.00 78 1021.2
20260906075905 22 158 0.0 0.0 0.00 0.00 0.00 76 1021.2
20260906075405 21 158 0.0 0.0 0.00 0.00 0.00 77 1021.1
20260906074905 21 158 0.0 0.0 0.00 0.00 0.00 77 1021.1
20260906074405 21 158 0.0 0.0 0.00 0.00 0.00 78 1021.1
20260906073906 21 158 0.0 0.0 0.00 0.00 0.00 79 1020.9
20260906073405 21 158 0.0 0.0 0.00 0.00 0.00 78 1021.0
20260906072905 21 158 0.0 0.0 0.00 0.00 0.00 79 1021.0
20260906072405 20 158 0.0 0.0 0.00 0.00 0.00 79 1020.9
20260906071405 20 158 0.0 0.0 0.00 0.00 0.00 80 1020.8
20260906070905 20 158 0.0 0.0 0.00 0.00 0.00 81 1020.8
20260906070405 20 158 0.0 0.0 0.00 0.00 0.00 82 1020.8
20260906065905 20 158 0.0 0.0 0.00 0.00 0.00 82 1020.7
20260906065405 20 158 0.0 0.0 0.00 0.00 0.00 82 1020.7
20260906064905 20 158 0.0 0.0 0.00 0.00 0.00 82 1020.6
20260906064404 19 158 0.0 0.0 0.00 0.00 0.00 82 1020.5
20260906063404 19 158 0.0 0.0 0.00 0.00 0.00 81 1020.4
20260906062904 20 158 0.0 0.0 0.00 0.00 0.00 81 1020.2
20260906062405 20 158 0.0 0.0 0.00 0.00 0.00 81 1020.1
20260906061904 20 158 0.0 0.0 0.00 0.00 0.00 81 1019.9
20260906061405 20 158 0.0 0.0 0.00 0.00 0.00 81 1019.9
20260906060905 20 158 0.0 0.0 0.00 0.00 0.00 81 1019.8
20260906060405 20 138 0.0 0.0 0.00 0.00 0.00 81 1019.8
20260906055405 20 138 0.0 0.0 0.00 0.00 0.00 81 1019.7
20260906054905 20 138 0.0 0.0 0.00 0.00 0.00 81 1019.6
20260906054404 20 138 0.0 0.0 0.00 0.00 0.00 81 1019.6
20260906053904 20 138 0.0 0.0 0.00 0.00 0.00 81 1019.6
20260906053404 20 138 0.0 0.0 0.00 0.00 0.00 80 1019.6
20260906052405 20 138 0.0 0.0 0.00 0.00 0.00 80 1019.4
20260906051904 20 138 0.0 0.0 0.00 0.00 0.00 81 1019.4
20260906051405 20 138 0.0 0.0 0.00 0.00 0.00 81 1019.3
20260906050905 20 138 0.0 0.0 0.00 0.00 0.00 82 1019.2
20260906050405 20 138 0.0 0.0 0.00 0.00 0.00 82 1019.2
20260906045404 21 138 0.0 0.0 0.00 0.00 0.00 81 1019.2
20260906044905 21 138 0.0 0.0 0.00 0.00 0.00 81 1019.2
20260906044405 21 138 0.0 0.0 0.00 0.00 0.00 80 1019.2
20260906042905 21 138 0.0 0.0 0.00 0.00 0.00 79 1019.2
20260906042405 21 138 0.0 0.0 0.00 0.00 0.00 80 1019.2
20260906041905 21 138 0.0 1.6 0.00 0.00 0.00 80 1019.3
20260906041405 21 138 0.0 0.0 0.00 0.00 0.00 79 1019.2
20260906040904 21 138 3.2 8.0 0.00 0.00 0.00 79 1019.2
20260906040405 21 138 0.0 8.0 0.00 0.00 0.00 79 1019.2
20260906035405 21 138 0.0 0.0 0.00 0.00 0.00 78 1019.3
20260906033905 21 138 0.0 0.0 0.00 0.00 0.00 78 1019.4
20260906032905 21 138 0.0 0.0 0.00 0.00 0.00 78 1019.5
20260906032405 22 138 0.0 0.0 0.00 0.00 0.00 77 1019.6
20260906031905 22 138 0.0 0.0 0.00 0.00 0.00 77 1019.5
20260906031404 22 138 0.0 1.6 0.00 0.00 0.00 77 1019.6
20260906030405 22 138 0.0 0.0 0.00 0.00 0.00 77 1019.6
20260906025905 22 138 3.2 8.0 0.00 0.00 0.00 77 1019.6
20260906025405 22 138 1.6 8.0 0.00 0.00 0.00 77 1019.7
20260906024904 22 138 1.6 9.7 0.00 0.00 0.00 76 1019.7
20260906024404 22 138 0.0 9.7 0.00 0.00 0.00 76 1019.8
20260906023905 22 138 3.2 9.7 0.00 0.00 0.00 76 1019.8
20260906023404 22 138 4.8 9.7 0.00 0.00 0.00 76 1019.7
20260906022905 22 138 3.2 9.7 0.00 0.00 0.00 75 1019.7
20260906022404 22 138 1.6 9.7 0.00 0.00 0.00 75 1019.7
20260906020905 23 138 1.6 8.0 0.00 0.00 0.00 74 1019.9
20260906020404 23 138 3.2 8.0 0.00 0.00 0.00 74 1019.9
20260906015405 23 138 0.0 0.0 0.00 0.00 0.00 73 1019.9
20260906014905 23 138 1.6 4.8 0.00 0.00 0.00 73 1020.0
20260906014405 23 138 6.4 11.3 0.00 0.00 0.00 73 1020.0
20260906013904 23 138 0.0 8.0 0.00 0.00 0.00 72 1020.1
20260906013405 23 138 1.6 8.0 0.00 0.00 0.00 72 1020.1
20260906012904 24 138 0.0 9.7 0.00 0.00 0.00 72 1020.1
20260906012405 24 138 4.8 9.7 0.00 0.00 0.00 71 1020.0
20260906011905 24 138 1.6 8.0 0.00 0.00 0.00 71 1020.0
20260906011404 24 138 0.0 8.0 0.00 0.00 0.00 71 1020.1
20260906010904 24 138 0.0 0.0 0.00 0.00 0.00 70 1020.1
20260906010405 25 138 0.0 1.6 0.00 0.00 0.00 69 1020.1
20260906005904 25 138 3.2 9.7 0.00 0.00 0.00 69 1020.1
20260906005404 25 138 1.6 11.3 0.00 0.00 0.00 69 1020.2
20260906004905 25 138 0.0 11.3 0.00 0.00 0.00 69 1020.2
20260906004404 25 138 3.2 8.0 0.00 0.00 0.00 69 1020.2
20260906003905 25 138 1.6 8.0 0.00 0.00 0.00 70 1020.2
20260906003405 25 138 0.0 0.0 0.00 0.00 0.00 69 1020.3
20260906002404 25 138 0.0 4.8 0.00 0.00 0.00 69 1020.3
20260906001404 25 138 0.0 8.0 0.00 0.00 0.00 67 1020.3
20260906000905 25 138 4.8 11.3 0.00 0.00 0.00 67 1020.3
20260906000404 25 138 0.0 0.0 0.00 0.00 0.00 67 1020.2
20260905235905 25 138 0.0 1.6 0.00 0.00 0.00 66 1020.2
20260905235404 25 138 0.0 1.6 0.00 0.00 0.00 65 1020.1
20260905234904 25 138 0.0 1.6 0.00 0.00 0.00 65 1020.2
20260905234405 25 138 1.6 8.0 0.00 0.00 0.00 64 1020.2
20260905233405 26 138 1.6 8.0 0.00 0.00 0.00 63 1020.1
20260905232904 26 138 0.0 1.6 0.00 0.00 0.00 63 1020.1
20260905232404 26 138 0.0 1.6 0.00 0.00 0.00 63 1020.0
20260905231904 26 138 0.0 0.0 0.00 0.00 0.00 62 1020.0
20260905231404 26 138 0.0 0.0 0.00 0.00 0.00 62 1019.9
20260905230904 26 138 0.0 8.0 0.00 0.00 0.00 62 1019.8
20260905230404 26 138 0.0 4.8 0.00 0.00 0.00 62 1019.8
20260905225904 26 138 1.6 8.0 0.00 0.00 0.00 62 1019.8
20260905225405 26 138 1.6 11.3 0.00 0.00 0.00 62 1019.8
20260905224904 26 138 3.2 12.9 0.00 0.00 0.00 62 1019.7
20260905224404 26 155 1.6 11.3 0.00 0.00 0.00 62 1019.6
20260905223904 26 146 1.6 9.7 0.00 0.00 0.00 62 1019.5
20260905223404 27 146 0.0 8.0 0.00 0.00 0.00 62 1019.5
20260905222904 27 146 8.0 11.3 0.00 0.00 0.00 62 1019.5
20260905222404 27 142 0.0 1.6 0.00 0.00 0.00 62 1019.4
20260905221905 27 131 0.0 4.8 0.00 0.00 0.00 62 1019.4
20260905221405 27 140 1.6 9.7 0.00 0.00 0.00 62 1019.4
20260905215904 27 122 3.2 14.5 0.00 0.00 0.00 60 1019.2
20260905215405 28 99 4.8 12.9 0.00 0.00 0.00 60 1019.2
20260905214904 28 103 8.0 16.1 0.00 0.00 0.00 60 1019.2
20260905214404 28 89 6.4 19.3 0.00 0.00 0.00 60 1019.2
20260905213404 28 97 9.7 19.3 0.00 0.00 0.00 59 1019.2
20260905212404 28 94 4.8 16.1 0.00 0.00 0.00 57 1019.2
20260905211904 28 107 3.2 19.3 0.00 0.00 0.00 57 1019.1
20260905211404 29 96 3.2 19.3 0.00 0.00 0.00 56 1019.0
20260905210906 29 96 1.6 11.3 0.00 0.00 0.00 55 1018.9
20260905210404 29 91 3.2 16.1 0.00 0.00 0.00 55 1018.9
20260905205904 30 123 4.8 19.3 0.00 0.00 0.00 55 1018.9
20260905204904 30 107 0.0 8.0 0.00 0.00 0.00 54 1018.7
20260905204404 30 107 1.6 12.9 0.00 0.00 0.00 53 1018.6
20260905203904 30 113 1.6 4.8 0.00 0.00 0.00 53 1018.5
20260905203404 30 117 0.0 9.7 0.00 0.00 0.00 51 1018.4
20260905201904 31 126 0.0 1.6 0.00 0.00 0.00 48 1018.2
20260905200904 32 170 0.0 1.6 0.00 0.00 0.00 46 1018.0
20260905195904 32 171 0.0 0.0 0.00 0.00 0.00 45 1017.9
20260905195404 32 171 0.0 1.6 0.00 0.00 0.00 45 1018.0
20260905194904 32 192 0.0 1.6 0.00 0.00 0.00 43 1017.8
20260905194404 33 218 0.0 3.2 0.00 0.00 0.00 42 1017.8
20260905193906 33 122 1.6 4.8 0.00 0.00 0.00 40 1017.7
20260905193405 33 94 0.0 0.0 0.00 0.00 0.00 38 1017.7
20260905192904 33 94 0.0 0.0 0.00 0.00 0.00 37 1017.7
20260905192405 33 94 0.0 0.0 0.00 0.00 0.00 36 1017.6
20260905191905 34 94 0.0 1.6 0.00 0.00 0.00 36 1017.5
20260905190905 34 92 0.0 1.6 0.00 0.00 0.00 35 1017.4
20260905190405 35 108 0.0 8.0 0.00 0.00 0.00 35 1017.4
20260905185905 35 100 0.0 3.2 0.00 0.00 0.00 34 1017.4
20260905185406 35 94 0.0 9.7 0.00 0.00 0.00 34 1017.3
20260905184905 35 106 1.6 14.5 0.00 0.00 0.00 34 1017.3
20260905184405 35 101 0.0 3.2 0.00 0.00 0.00 33 1017.2
20260905183905 35 85 3.2 12.9 0.00 0.00 0.00 33 1017.1
20260905183407 35 83 0.0 19.3 0.00 0.00 0.00 33 1017.1
20260905182905 36 68 1.6 11.3 0.00 0.00 0.00 34 1017.1
20260905181905 36 104 3.2 12.9 0.00 0.00 0.00 33 1017.0
20260905181405 36 87 1.6 8.0 0.00 0.00 0.00 33 1017.0
20260905180906 36 107 3.2 11.3 0.00 0.00 0.00 33 1016.9
20260905180405 36 98 3.2 11.3 0.00 0.00 0.00 33 1016.8
20260905175905 36 96 3.2 12.9 0.00 0.00 0.00 33 1016.8
20260905175406 36 101 0.0 4.8 0.00 0.00 0.00 32 1016.8
20260905174406 36 120 1.6 8.0 0.00 0.00 0.00 32 1016.7
20260905173906 37 90 0.0 4.8 0.00 0.00 0.00 32 1016.7
20260905173405 37 101 1.6 9.7 0.00 0.00 0.00 31 1016.7
20260905172405 37 107 1.6 9.7 0.00 0.00 0.00 31 1016.7
20260905171906 37 107 1.6 14.5 0.00 0.00 0.00 31 1016.7
20260905171406 37 131 6.4 12.9 0.00 0.00 0.00 30 1016.7
20260905165405 37 117 0.0 12.9 0.00 0.00 0.00 28 1016.6
20260905164906 37 28 4.8 14.5 0.00 0.00 0.00 28 1016.5
20260905164405 37 44 3.2 14.5 0.00 0.00 0.00 27 1016.6
20260905163405 37 349 0.0 11.3 0.00 0.00 0.00 27 1016.6
20260905162905 37 11 3.2 11.3 0.00 0.00 0.00 27 1016.6
20260905162405 38 92 0.0 4.8 0.00 0.00 0.00 26 1016.6
20260905161906 38 98 4.8 8.0 0.00 0.00 0.00 26 1016.7